Regional Weather Roundup
Issued by NWS Newport/Morehead, NC

Current Version | Previous Version | Graphics & Text | Print | Product List | Glossary Off
Versions: 1 2 3 4 5 6 7 8 9 10 11 12 13 14 15 16 17 18 19 20 21 22 23 24 25 26 27 28 29 30 31 32 33 34 35 36 37 38 39 40 41 42 43 44 45 46 47 48 49 50

000
ASUS42 KMHX 260525
RWRMHX
WEATHER ROUNDUP FOR EASTERN NORTH CAROLINA
NATIONAL WEATHER SERVICE NEWPORT/MOREHEAD CITY NC
100 AM EDT FRI AUG 26 2016

NOTE: "FAIR" INDICATES FEW OR NO CLOUDS BELOW 12,000 FEET
WITH NO SIGNIFICANT WEATHER AND/OR OBSTRUCTIONS TO VISIBILITY

NCZ015>017-031-032-045>047-102-103-260600-
NORTH COAST

CITY           SKY/WX    TMP DP  RH WIND       PRES   REMARKS
EDENTON        FAIR      78  69  73 S9        30.09S
ELIZABETH CITY FAIR      75  68  78 S6        30.08S
KITTY HAWK     FAIR      75  72  89 S3        30.07F
MANTEO         FAIR      78  68  72 S8        30.09S

$$

NCZ045>047-081-094-103-104-260600-
CENTRAL COAST

CITY           SKY/WX    TMP DP  RH WIND       PRES   REMARKS
FRISCO         FAIR      79  64  60 SE7       30.09F

$$

NCZ095-097-098-100-101-260600-
SOUTHERN COAST

CITY           SKY/WX    TMP DP  RH WIND       PRES   REMARKS
BEAUFORT       FAIR      73  68  84 CALM      30.09S
CEDAR ISLAND   NOT AVBL
JACKSONVILLE   FAIR      72  68  87 CALM      30.09R
PINEY ISLAND   NOT AVBL
WILMINGTON     FAIR      73  68  84 CALM      30.09S


$$

NCZ011>013-027>030-043-044-078>080-089-090>093-098-260600-
COASTAL PLAIN

CITY           SKY/WX    TMP DP  RH WIND       PRES   REMARKS
AHOSKIE        FAIR      73  69  88 S3        30.09R
CLINTON        FAIR      73  71  92 CALM      30.10R
ELIZABETHTOWN  FAIR      74  71  88 CALM      30.09S
GOLDSBORO      FAIR      75  71  87 S2        30.08S
GREENVILLE     FAIR      73  70  88 SW7       30.10S
HAVELOCK       FAIR      72  68  87 CALM      30.10S
KENANSVILLE    FAIR      70  68  94 CALM      30.10S
KINSTON        FAIR      72  68  88 S3        30.10S
NEW BERN       FAIR      71  68  90 CALM      30.11R
RICHLANDS      FAIR      69  68  96 CALM      30.10S
ROCKY MOUNT    FAIR      74  70  87 S3        30.08S
WASHINGTON     FAIR      74  68  81 CALM      30.09S
WHITEVILLE     FAIR      73  69  90 CALM      30.09S

$$

AMZ130-135-150-152-154-156-158-170-250-252-270-ANZ085-086-088-633-658-670-260600-
MARINE OBSERVATIONS

STATION/POSITION TIME  TEMP    WIND        PRES    WAVE   SWELL
                       AIR SEA DIR/SP/G            HT/PER HT/PER
                 (UTC) (F)     (DEG/KT/KT) (MB)    (FT/S) (FT/S)
CHESAPEAKE LIGHT NOT AVBL
64 E VA BEACH    0450   80 81  190/ 14/ 16 1018.0    3/ 8   2/ 8
DUCK             0500   78 79  170/  8/ 10 1017.9
2 E DUCK         0411      78                N/A     2/ 8
OREGON INLET     0500   77 80  140/  4/  7 1018.6
13E OREGON INLT  0500      78                N/A     2/ 8   2/ 8
HATTERAS CG      0500   80 81  140/  5/  7 1018.5
DIAMOND BUOY     0450   81 84  150/  4/  6 1018.9    3/ 9   3/ 9
CAPE LOOKOUT     0500   80     140/  5/  7 1018.6
BEAUFORT LAB     0500   79 81  150/  5/  5 1018.2
30 SE NEW RVR IN 0408   81 84  120/  8/ 12 1018.6
30 SE NEW RVR IN 0425      84                N/A     3/ 9
27 SE WRIGHTSVLE 0508   82 83  120/  6/ 10 1018.8
5 SE WRIGHTSVLE  0408   81 83  170/  6/  8 1019.9
225 S CAPE HAT   0450   81 84   40/ 12/ 14 1017.1    4/ 8   3/ 8
41 SE CHARLESTON 0450   83 84  100/  8/ 10 1018.1    3/ 9   3/ 9

$$




USA.gov is the U.S. government's official web portal to all federal, state and local government web resources and services.